[[{"header":{"parameterUnit":"m.s-1","parameterCategory":1,"la1":30.2991,"la2":30.254,"lo1":-89.0895,"lo2":-89.0444,"dy":0.0017,"dx":0.0017,"nx":28,"ny":28,"refTime":"2025-09-01T03:00:00:Z","depth":0,"parameterNumber":2,"parameterNumberName":"U-component_of_WINDS"},"data":[0,0,0,0,0,0,0,0,0,0,0,0,0,0,0,0,0,0,0,0,0,0,0,0,0,0,0,0,0,0,0,0,0,0,0,0,0,0,0,0,0,0,0,0,0,0,0,0,0,0,0,0,0,0,0,0,0,0,-5.0024,-5.0024,0,-5.0034,-5.0034,-5.0034,-4.9889,-4.9885,-4.9882,-4.9878,-4.9891,-4.9895,-4.9898,0,0,0,0,0,0,0,0,0,0,0,0,0,-4.9884,-4.9888,-5.0024,-5.0024,-5.0025,-5.0034,-5.0034,-5.0034,-4.989,-4.9885,-4.9881,-4.9876,-4.9889,-4.9894,-4.9899,0,0,0,0,0,0,0,0,0,0,0,0,0,-4.9925,-4.9889,-5.0024,-4.9954,-4.9947,-5.0034,-5.0034,-5.0034,-4.9891,-4.9885,-4.9879,-4.9874,-4.9888,-4.9894,-4.99,-5.0055,0,0,-4.9918,-4.992,0,0,0,0,0,0,0,0,-4.9923,-4.993,-4.9964,-4.9959,-4.9952,-4.9954,-4.9989,-5.0041,-4.9893,-4.9913,-4.9878,-4.9871,-4.9917,-4.992,-4.9935,-5.0055,-5.0056,-4.9918,-4.9922,-4.9925,-4.9926,0,0,0,0,0,0,0,-4.992,-4.9929,-5.0028,-4.9965,-4.9957,-4.9923,-4.9922,-4.9998,-4.9948,-4.991,-4.99,-4.9903,-4.9912,-4.9929,-4.9934,-5.0056,-4.9918,-4.9924,-4.9927,-4.993,-5.0305,-5.0311,0,0,0,0,0,0,-4.9927,-4.9928,-5.0028,-5.0028,-4.9922,-4.993,-4.9929,-4.996,-4.9947,-4.9939,-4.9908,-4.9896,-4.9922,-4.9927,-4.9934,-5.0115,-4.9925,-4.993,-4.9934,-5.0299,-5.0307,-5.0314,0,0,0,0,0,0,-4.9924,-4.9937,-5.0027,-4.9975,-4.9984,-4.9939,-4.9974,-4.9963,-4.998,-4.9945,-4.9935,-4.9934,-4.9918,-4.9926,-5.0026,-5.0114,-4.9933,-4.9938,-5.0292,-5.0301,-5.031,-5.0479,0,0,0,0,0,0,-4.9921,-4.9937,-4.9994,-4.9977,-4.9987,-5.0119,-4.9979,-4.9967,-4.999,-4.9975,-4.9967,-4.996,-4.9914,-5.0018,-5.0032,-5.0119,-4.9943,-5.0283,-5.0296,-5.0307,-5.0465,-5.0493,-5.0517,0,0,0,0,0,-4.9916,-5.0042,-4.9998,-5.0011,-5.0058,-5.0124,-5.0129,-5.0073,-4.9998,-5.0056,-5.0034,-4.996,-5.0102,-5.0029,-5.0044,-5.0134,-5.0278,-5.0292,-5.0306,-5.0454,-5.0488,-5.0516,0,0,0,0,0,0,-5.0071,-5.0038,-4.9989,-5.0113,-5.0122,-5.0099,-5.017,-5.011,-5.0141,-5.0126,-5.0055,-5.0054,-5.0167,-5.016,-5.0079,-5.0284,-5.0177,-5.0195,-5.0284,-5.0316,-5.0341,-5.034,-4.9948,0,0,0,0,0,-5.012,-5.0175,-5.0143,-5.0256,-5.0263,-5.0217,-5.0243,-5.0198,-5.0205,-5.0209,-5.0193,-5.0204,-5.025,-5.0283,-5.0324,-5.0464,-5.0461,-5.0533,-5.0559,-5.058,-5.0597,-5.0671,-5.0704,-5.0361,-5.0361,-5.036,0,0,-5.022,-5.0209,-5.0248,-5.0287,-5.0288,-5.0348,-5.0221,-5.0289,-5.0332,-5.0219,-5.0312,-5.0302,-5.0309,-5.0431,-5.0483,-5.0429,-5.0691,-5.0599,-5.0616,-5.0621,-5.069,-5.0722,-5.0751,-5.037,-5.0369,-5.0367,0,0,-5.0434,-5.0432,-5.0525,-5.053,-5.0534,-5.0502,-5.0525,-5.0511,-5.05,-5.0593,-5.0509,-5.0561,-5.0643,-5.0651,-5.0666,-5.0886,-5.082,-5.0901,-5.1036,-5.1109,-5.1136,-5.116,-5.1239,-5.1268,-5.0918,-5.0918,-5.0918,0,-5.0559,-5.0645,-5.0581,-5.0655,-5.0675,-5.0574,-5.0669,-5.0677,-5.0695,-5.0712,-5.065,-5.0751,-5.0749,-5.0871,-5.0925,-5.094,-5.0965,-5.0901,-5.1138,-5.1161,-5.1182,-5.1256,-5.1286,-5.0928,-5.0927,-5.0926,-5.0925,0,-5.0798,-5.0859,-5.0934,-5.0954,-5.0982,-5.1067,-5.1017,-5.1053,-5.1007,-5.0983,-5.1079,-5.1073,-5.1111,-5.1137,-5.1093,-5.1254,-5.122,-5.115,-5.104,-5.1225,-5.1294,-5.1322,-5.0942,-5.0939,-5.0936,-5.0933,0,0,-5.1109,-5.1093,-5.1122,-5.113,-5.1128,-5.1174,-5.1255,-5.1291,-5.1324,-5.1341,-5.1407,-5.1479,-5.1414,-5.1432,-5.1388,-5.1452,-5.1628,-5.1374,-5.1373,-5.1421,-5.1806,-5.1859,-5.1893,-5.1584,-5.1589,-5.1593,-5.1805,0,-5.1317,-5.1452,-5.1398,-5.1539,-5.1595,-5.1501,-5.1571,-5.1579,-5.1559,-5.1604,-5.1582,-5.1634,-5.1544,-5.1554,-5.1614,-5.1594,-5.1704,-5.1578,-5.1646,-5.1649,-5.1647,-5.1928,-5.1984,-5.2185,-5.1832,-5.1836,-5.1839,0,-5.1578,-5.1605,-5.1751,-5.174,-5.1761,-5.1825,-5.1855,-5.1899,-5.1906,-5.1887,-5.1908,-5.185,-5.1929,-5.1821,-5.193,-5.1846,-5.1871,-5.1865,-5.1872,-5.1876,-5.1755,-5.194,-5.2247,-5.2277,-5.1881,-5.1878,-5.1875,0,-5.179,-5.1863,-5.196,-5.1969,-5.1959,-5.2006,-5.2005,-5.2005,-5.2032,-5.2058,-5.2075,-5.2111,-5.2131,-5.2162,-5.2115,-5.2041,-5.2232,-5.2119,-5.2219,-5.2221,-5.2263,-5.2261,-5.2578,-5.228,-5.228,-5.2279,-5.2278,0,-5.2028,-5.2122,-5.2055,-5.2115,-5.2217,-5.2154,-5.2258,-5.2245,-5.2248,-5.2304,-5.2226,-5.2281,-5.2217,-5.2266,-5.2231,-5.2327,-5.2337,-5.2325,-5.2314,-5.2332,-5.2333,-5.2347,-5.2332,-5.2287,-5.2285,-5.2284,-5.2282,0,-5.2282,-5.2241,-5.2341,-5.2323,-5.2321,-5.2397,-5.2383,-5.2438,-5.2413,-5.2485,-5.2499,-5.246,-5.2514,-5.2471,-5.2525,-5.2501,-5.2629,-5.2598,-5.2626,-5.2618,-5.272,-5.2711,-5.3057,-5.3099,-5.2774,-5.2777,-5.278,0,-5.2437,-5.2506,-5.2496,-5.2528,-5.2531,-5.2584,-5.261,-5.2552,-5.2583,-5.2597,-5.2651,-5.2698,-5.2733,-5.2824,-5.2801,-5.2842,-5.2812,-5.2931,-5.2818,-5.2834,-5.2814,-5.2811,-5.2818,-5.2954,-5.2958,-5.2961,-5.2963,0,-5.2715,-5.2692,-5.2732,-5.2767,-5.28,-5.2824,-5.2842,-5.2873,-5.2814,-5.2853,-5.2907,-5.2934,-5.2989,-5.3038,-5.3071,-5.307,-5.3008,-5.2999,-5.3024,-5.3043,-5.3056,-5.305,-5.2688,-5.2991,-5.2988,-5.2986,-5.2985,-5.2984,-5.2924,-5.2981,-5.2984,-5.3032,-5.3039,-5.3059,-5.311,-5.3091,-5.3135,-5.3174,-5.3138,-5.3204,-5.321,-5.3248,-5.3255,-5.3306,-5.3257,-5.3294,-5.3303,-5.3313,-5.3328,-5.3048,-5.3312,-5.3311,-5.3311,-5.331,-5.3309,0,-5.3198,-5.3195,-5.324,-5.3268,-5.3306,-5.3244,-5.3261,-5.3298,-5.3356,-5.3367,-5.3403,-5.3467,-5.3514,-5.3495,-5.3537,-5.3582,-5.3555,-5.3595,-5.3591,-5.3592,-5.3369,-5.3343,-5.3616,-5.3616,-5.3616,-5.3616,-5.3616,-5.3616,-5.3345,-5.344,-5.3417,-5.3516,-5.3512,-5.3575,-5.359,-5.3608,-5.3617,-5.3691,-5.3729,-5.3716,-5.3716,-5.3758,-5.3799,-5.3792,-5.3811,-5.3862,-5.3846,-5.3638,-5.3607,-5.3579,-5.3554,-5.3867,-5.3867,-5.4064,-5.4066,-5.4067]},{"header":{"parameterUnit":"m.s-1","parameterCategory":1,"la1":30.2991,"la2":30.254,"lo1":-89.0895,"lo2":-89.0444,"dy":0.0017,"dx":0.0017,"nx":28,"ny":28,"refTime":"2025-09-01T03:00:00:Z","depth":0,"parameterNumber":3,"parameterNumberName":"V-component_of_WINDS"},"data":[0,0,0,0,0,0,0,0,0,0,0,0,0,0,0,0,0,0,0,0,0,0,0,0,0,0,0,0,0,0,0,0,0,0,0,0,0,0,0,0,0,0,0,0,0,0,0,0,0,0,0,0,0,0,0,0,0,0,0.5755,0.5756,0,0.5787,0.5788,0.5788,0.5842,0.5844,0.5845,0.5846,0.5875,0.5874,0.5874,0,0,0,0,0,0,0,0,0,0,0,0,0,0.574,0.574,0.5755,0.5756,0.5756,0.5787,0.5788,0.5788,0.5842,0.5844,0.5845,0.5846,0.5875,0.5874,0.5874,0,0,0,0,0,0,0,0,0,0,0,0,0,0.5757,0.574,0.5755,0.5787,0.579,0.5787,0.5788,0.5788,0.5842,0.5844,0.5845,0.5847,0.5875,0.5874,0.5874,0.5841,0,0,0.5873,0.5873,0,0,0,0,0,0,0,0,0.5756,0.5757,0.5782,0.5785,0.5789,0.5813,0.5793,0.5806,0.5842,0.5822,0.5846,0.5847,0.5852,0.5854,0.5857,0.5843,0.5844,0.5873,0.5873,0.5873,0.5873,0,0,0,0,0,0,0,0.5754,0.5756,0.5768,0.5782,0.5786,0.5799,0.5803,0.5796,0.5828,0.5824,0.5828,0.5831,0.5855,0.5857,0.5858,0.5844,0.5873,0.5873,0.5873,0.5873,0.5806,0.5804,0,0,0,0,0,0,0.5749,0.5755,0.5767,0.5769,0.5776,0.5798,0.5803,0.5803,0.5828,0.5834,0.583,0.5834,0.5856,0.5858,0.5859,0.5822,0.5873,0.5873,0.5873,0.5807,0.5805,0.5804,0,0,0,0,0,0,0.5748,0.575,0.5766,0.5763,0.5766,0.5797,0.5797,0.5803,0.5805,0.5833,0.5839,0.5826,0.5858,0.5859,0.5846,0.5824,0.5873,0.5872,0.5809,0.5807,0.5805,0.5747,0,0,0,0,0,0,0.5748,0.5749,0.5737,0.5762,0.5766,0.5752,0.5796,0.5802,0.5805,0.581,0.5831,0.5836,0.5859,0.5846,0.5845,0.5824,0.5872,0.5811,0.5808,0.5805,0.5751,0.5743,0.5736,0,0,0,0,0,0.5747,0.5719,0.5736,0.5737,0.5752,0.5751,0.5753,0.5781,0.5803,0.5791,0.5809,0.5835,0.5827,0.5844,0.5844,0.5822,0.5813,0.5809,0.5806,0.5755,0.5745,0.5737,0,0,0,0,0,0,0.5689,0.5723,0.5742,0.5722,0.5733,0.576,0.5745,0.577,0.5774,0.5778,0.5813,0.5817,0.5798,0.581,0.5828,0.5792,0.5824,0.582,0.5785,0.5776,0.5769,0.5765,0.5872,0,0,0,0,0,0.5674,0.5671,0.5701,0.5679,0.5684,0.5714,0.5715,0.5736,0.5748,0.5753,0.577,0.578,0.578,0.5779,0.5781,0.5754,0.5759,0.5739,0.5732,0.5726,0.5721,0.5708,0.5699,0.5792,0.5792,0.5792,0,0,0.5642,0.566,0.5656,0.5668,0.568,0.5675,0.5717,0.5711,0.5707,0.5752,0.574,0.5753,0.5767,0.5747,0.5739,0.5755,0.5697,0.5721,0.5716,0.5715,0.5703,0.5694,0.5686,0.5789,0.579,0.579,0,0,0.5581,0.5596,0.558,0.5591,0.5608,0.5628,0.5624,0.5648,0.5659,0.5648,0.5681,0.5678,0.5677,0.5686,0.569,0.5635,0.5659,0.5635,0.5595,0.5581,0.5574,0.5568,0.5547,0.5539,0.5631,0.5631,0.5631,0,0.5539,0.5535,0.5568,0.5559,0.5564,0.5606,0.5589,0.5598,0.5614,0.5616,0.5635,0.5635,0.5648,0.563,0.5617,0.5619,0.5615,0.5631,0.5573,0.5567,0.5561,0.5542,0.5534,0.5627,0.5628,0.5628,0.5628,0,0.5482,0.5478,0.5463,0.5479,0.5482,0.5469,0.55,0.5499,0.5521,0.5539,0.5527,0.5544,0.555,0.5548,0.5568,0.5533,0.5543,0.5567,0.5599,0.5548,0.5531,0.5524,0.5623,0.5624,0.5625,0.5626,0,0,0.5382,0.5419,0.5412,0.542,0.5444,0.5441,0.5431,0.5438,0.5436,0.5446,0.5438,0.5437,0.546,0.5465,0.5487,0.5475,0.543,0.5501,0.5502,0.5486,0.5391,0.5371,0.5362,0.5447,0.5446,0.5445,0.539,0,0.5325,0.531,0.5341,0.5318,0.5315,0.5356,0.5347,0.536,0.5377,0.5376,0.5395,0.5394,0.5425,0.5428,0.5419,0.5437,0.5411,0.5442,0.5438,0.5437,0.5431,0.5353,0.5332,0.5279,0.5383,0.5382,0.5381,0,0.5256,0.5264,0.5241,0.5267,0.5267,0.5258,0.5267,0.5267,0.5282,0.5296,0.5302,0.5329,0.532,0.5353,0.5341,0.5362,0.5362,0.5371,0.537,0.5369,0.5404,0.5348,0.5263,0.5254,0.5371,0.5372,0.5372,0,0.5184,0.519,0.5177,0.5183,0.5212,0.5205,0.5217,0.5235,0.5237,0.5246,0.5247,0.5254,0.5257,0.5261,0.5289,0.5311,0.5273,0.5308,0.5282,0.5282,0.527,0.527,0.5182,0.5274,0.5274,0.5275,0.5275,0,0.5115,0.5099,0.5145,0.5136,0.512,0.5156,0.5138,0.5154,0.517,0.5165,0.5202,0.5196,0.5234,0.5233,0.5254,0.5241,0.5242,0.5252,0.5257,0.5247,0.5246,0.5246,0.525,0.5272,0.5273,0.5273,0.5274,0,0.5031,0.5061,0.5049,0.508,0.5087,0.5073,0.5098,0.5092,0.5113,0.5106,0.5107,0.5139,0.5139,0.5168,0.5174,0.5189,0.5165,0.5178,0.516,0.5163,0.5135,0.5136,0.5042,0.5031,0.5132,0.5131,0.513,0,0.4984,0.4973,0.5002,0.5002,0.5013,0.5012,0.5016,0.5051,0.5053,0.5071,0.5062,0.5066,0.5071,0.5069,0.5092,0.5097,0.511,0.5077,0.5111,0.5101,0.5107,0.5107,0.5106,0.5068,0.5067,0.5066,0.5065,0,0.4897,0.4913,0.4917,0.4926,0.4929,0.4938,0.4949,0.4947,0.4986,0.4986,0.4988,0.4991,0.4999,0.5002,0.5011,0.5023,0.505,0.5055,0.5049,0.5037,0.5026,0.503,0.5138,0.5056,0.5057,0.5058,0.5058,0.5059,0.4829,0.4821,0.4841,0.4844,0.4857,0.4866,0.4862,0.4883,0.4885,0.4895,0.4916,0.4914,0.4931,0.4947,0.4957,0.4955,0.4972,0.4963,0.4961,0.4958,0.4952,0.5029,0.4957,0.4958,0.4958,0.4958,0.4958,0,0.4743,0.4758,0.4761,0.4776,0.4778,0.4807,0.4821,0.482,0.4819,0.4833,0.4838,0.484,0.4843,0.4868,0.4874,0.4868,0.488,0.4868,0.4868,0.487,0.4937,0.4941,0.4858,0.4858,0.4858,0.4858,0.4858,0.4858,0.4698,0.4686,0.4704,0.4699,0.4715,0.4714,0.472,0.4729,0.4741,0.4741,0.4745,0.4762,0.478,0.4789,0.4793,0.48,0.48,0.4783,0.4794,0.4855,0.4865,0.4874,0.4878,0.4783,0.4783,0.4726,0.4726,0.4725]}]]